Location: Asheville, NC
(35.6000°N, 82.5500°W)
Time: 06:43:27
(UTC-04:00)

EO-88 - Visible Passes

Search period start: 22 July 2018 00:00
Search period end: 01 August 2018 00:00
Orbit: 489 x 495 km, 97.4° (Epoch: 21 July)

Date Brightness Start Highest point End Pass type
(mag) Time Alt. Az. Time Alt. Az. Time Alt. Az.
22 Jul ? 23:18:49 44° WNW 23:18:49 44° WNW 23:21:44 10° NNW visible
23 Jul ? 22:56:35 63° NNE 22:56:35 63° NNE 22:59:46 10° N visible
24 Jul ? 22:34:21 35° ENE 22:34:21 35° ENE 22:37:30 10° N visible
25 Jul ? 00:08:53 10° WNW 00:08:53 10° WNW 00:08:53 10° WNW visible
25 Jul ? 22:12:08 19° ENE 22:12:13 19° ENE 22:14:50 10° NNE visible
25 Jul ? 23:46:39 19° WNW 23:46:39 19° WNW 23:48:29 10° NW visible
26 Jul ? 21:50:14 10° ENE 21:50:22 10° ENE 21:50:29 10° ENE visible
26 Jul ? 23:24:25 35° WNW 23:24:25 35° WNW 23:26:59 10° NNW visible
27 Jul ? 23:02:11 54° NNW 23:02:11 54° NNW 23:05:05 10° NNW visible
28 Jul ? 22:39:57 39° NE 22:39:57 39° NE 22:42:53 10° N visible
29 Jul ? 22:17:44 22° ENE 22:17:44 22° ENE 22:20:19 10° NNE visible
29 Jul ? 23:52:14 16° WNW 23:52:14 16° WNW 23:53:34 10° NW visible
30 Jul ? 21:55:30 12° ENE 21:55:36 12° ENE 21:56:57 10° NE visible
30 Jul ? 23:30:01 27° WNW 23:30:01 27° WNW 23:32:11 10° NNW visible
31 Jul ? 23:07:47 43° NNW 23:07:47 43° NNW 23:10:21 10° NNW visible
